Tracking 31027 objects as of 19-Jul-2025
HD Live streaming from Space Station
objects crossing your sky now

ATLAS CENTAUR R/B

Track ATLAS CENTAUR R/B now!


NORAD ID: 4882
Int'l Code: 1971-006B
Perigee: 655.4 km
Apogee: 36,435.6 km
Inclination: 28.5 °
Period: 652.4 minutes
Semi major axis: 24916 km
RCS: 15.787 m2 (large)
Launch date: January 26, 1971
Source: United States (US)
Launch site: AIR FORCE EASTERN TEST RANGE (AFETR)

Note: This is a ROCKET BODY
Your satellite tracking list
COSMOS 2251 DEB
Track 1 satellite(s)




NASA's NSSDC Master Catalog

Two Line Element Set (TLE):
1  4882U 71006B   25197.89209796 -.00000240  00000-0 -18076-2 0  9992
2  4882  28.4748   3.5211 7180026 241.8045  30.1639  2.20735977438983
Source of the keplerian elements: AFSPC